Observations for Trim Market St
| Time | AQI | Temp °C | Hum % | Pres Pa | CO μg/m³ | H₂S μg/m³ | NO μg/m³ | NO₂ μg/m³ | O₃ μg/m³ | SO₂ μg/m³ | PM1 μg/m³ | PM2.5 μg/m³ | PM10 μg/m³ |
|---|---|---|---|---|---|---|---|---|---|---|---|---|---|
| Monday 17 August 2026 | |||||||||||||
| 07:37 | 2 | 17.9 | 82 | 2,147,483,647 | 0.16 | 0 | 2.06 | 2.57 | 44.51 | 0 | 0 | 0.6 | 3.11 |
| 07:34 | 2 | 17.8 | 82 | 2,147,483,647 | 0.16 | 0 | 2.04 | 2.42 | 49.7 | 0 | 0 | 1.06 | 3.66 |
| 07:29 | 2 | 17.7 | 83 | 2,147,483,647 | 0.16 | 0 | 2.06 | 2.56 | 47.86 | 0 | 0 | 1.06 | 3.67 |
| 07:27 | 2 | 17.7 | 83 | 2,147,483,647 | 0.15 | 0 | 2.06 | 2.37 | 48.22 | 0 | 0 | 1.05 | 3.67 |
| 07:22 | 2 | 17.6 | 83 | 2,147,483,647 | 0.17 | 0 | 2.06 | 3.31 | 40.26 | 0 | 0 | 1.52 | 4.23 |
| 07:21 | 2 | 17.6 | 83 | 2,147,483,647 | 0.16 | 0 | 2.06 | 2.76 | 47.5 | 0 | 0 | 1.05 | 3.68 |
| 07:20 | 2 | 17.6 | 83 | 2,147,483,647 | 0.15 | 0 | 2.07 | 2.67 | 48.18 | 0 | 0 | 1.04 | 3.68 |
| 07:19 | 2 | 17.6 | 83 | 2,147,483,647 | 0.17 | 0 | 2.05 | 2.58 | 46.89 | 0 | 0 | 1.04 | 3.68 |
| 07:18 | 2 | 17.6 | 83 | 2,147,483,647 | 0.19 | 0 | 2.05 | 3 | 44.34 | 0 | 0 | 1.04 | 3.68 |
| 07:17 | 2 | 17.6 | 83 | 2,147,483,647 | 0.15 | 0 | 2.05 | 2.67 | 46.07 | 0 | 0 | 1.51 | 4.23 |
| 07:16 | 2 | 17.6 | 83 | 2,147,483,647 | 0.17 | 0 | 2.06 | 5.01 | 53.29 | 0 | 0 | 1.04 | 3.68 |
| 07:15 | 2 | 17.6 | 83 | 2,147,483,647 | 0.17 | 0 | 2.06 | 3.05 | 49.42 | 0 | 0 | 1.04 | 3.68 |
| 07:14 | 2 | 17.6 | 83 | 2,147,483,647 | 0.17 | 0 | 2.06 | 3.4 | 48.67 | 0 | 0 | 1.98 | 4.78 |
| 07:13 | 2 | 17.6 | 83 | 2,147,483,647 | 0.15 | 0 | 2.07 | 3.92 | 51.78 | 0 | 0 | 1.97 | 5.33 |
| 07:12 | 2 | 17.6 | 83 | 2,147,483,647 | 0.16 | 0 | 2.07 | 2.83 | 47.12 | 0 | 0.71 | 1.97 | 4.78 |
| 07:11 | 2 | 17.6 | 83 | 2,147,483,647 | 0.18 | 0 | 2.06 | 4 | 47.47 | 0 | 0.71 | 1.51 | 5.88 |
| 07:10 | 2 | 17.6 | 83 | 2,147,483,647 | 0.16 | 0 | 2.05 | 3.52 | 49.54 | 0 | 0 | 0.57 | 3.14 |
| 07:09 | 2 | 17.6 | 83 | 2,147,483,647 | 0.17 | 0 | 2.05 | 3.11 | 58.74 | 0 | 0 | 1.04 | 3.68 |
| 07:07 | 2 | 17.5 | 83 | 2,147,483,647 | 0.18 | 0 | 2.05 | 5.4 | 52.83 | 0 | 0 | 1.04 | 3.68 |
| 07:04 | 2 | 17.5 | 83 | 2,147,483,647 | 0.17 | 0 | 2.05 | 4.09 | 52.77 | 0 | 0 | 1.51 | 4.23 |